Time,TemperatureF,DewpointF,PressureIn,WindDirection,WindDirectionDegrees,WindSpeedMPH,WindSpeedGustMPH,Humidity,HourlyPrecipIn,Conditions,Clouds,dailyrainin,SoftwareType,DateUTC
2013-03-01 00:02:00,25.0,20.0,30.21,WNW,303,3.0,6.0,81,0.00,,,0.00,,2013-03-01 06:02:00,
2013-03-01 00:11:00,25.0,20.0,30.21,WNW,303,3.0,6.0,81,0.00,,,0.00,,2013-03-01 06:11:00,
2013-03-01 00:22:00,25.0,20.0,30.21,NW,316,2.0,5.0,81,0.00,,,0.00,,2013-03-01 06:22:00,
2013-03-01 00:32:00,25.0,20.0,30.21,NW,326,2.0,8.0,81,0.00,,,0.00,,2013-03-01 06:32:00,
2013-03-01 00:42:00,25.0,20.0,30.21,NW,326,2.0,8.0,81,0.00,,,0.00,,2013-03-01 06:42:00,
2013-03-01 00:52:00,25.0,20.0,30.21,NNW,335,1.0,4.0,81,0.00,,,0.00,,2013-03-01 06:52:00,
2013-03-01 01:01:00,25.0,20.0,30.21,WNW,300,2.0,4.0,81,0.00,,,0.00,,2013-03-01 07:01:00,
2013-03-01 01:11:00,25.0,20.0,30.21,WNW,300,2.0,4.0,81,0.00,,,0.00,,2013-03-01 07:11:00,
2013-03-01 01:22:00,25.0,20.0,30.21,NW,324,1.0,5.0,81,0.00,,,0.00,,2013-03-01 07:22:00,
2013-03-01 01:32:00,25.0,20.0,30.21,NNW,336,1.0,4.0,80,0.00,,,0.00,,2013-03-01 07:32:00,
2013-03-01 01:42:00,25.0,20.0,30.21,NNW,336,1.0,4.0,80,0.00,,,0.00,,2013-03-01 07:42:00,
2013-03-01 01:52:00,25.0,20.0,30.22,West,276,2.0,5.0,80,0.00,,,0.00,,2013-03-01 07:52:00,
2013-03-01 02:02:00,25.0,20.0,30.22,NNW,329,2.0,5.0,80,0.00,,,0.00,,2013-03-01 08:02:00,
2013-03-01 02:11:00,25.0,20.0,30.22,NNW,329,2.0,5.0,80,0.00,,,0.00,,2013-03-01 08:11:00,
2013-03-01 02:22:00,25.0,20.0,30.22,NW,322,1.0,4.0,80,0.00,,,0.00,,2013-03-01 08:22:00,
2013-03-01 02:32:00,25.0,20.0,30.22,NW,318,1.0,4.0,81,0.00,,,0.00,,2013-03-01 08:32:00,
2013-03-01 02:42:00,25.0,20.0,30.22,NW,318,1.0,4.0,81,0.00,,,0.00,,2013-03-01 08:42:00,
2013-03-01 02:53:00,25.0,20.0,30.22,West,277,2.0,6.0,80,0.00,,,0.00,,2013-03-01 08:53:00,
2013-03-01 03:02:00,25.0,20.0,30.21,NW,326,2.0,4.0,80,0.00,,,0.00,,2013-03-01 09:02:00,
2013-03-01 03:12:00,25.0,20.0,30.21,NW,326,2.0,4.0,80,0.00,,,0.00,,2013-03-01 09:12:00,
2013-03-01 03:22:00,25.0,20.0,30.21,NW,325,1.0,6.0,80,0.00,,,0.00,,2013-03-01 09:22:00,
2013-03-01 03:32:00,25.0,19.0,30.20,NNW,346,5.0,10.0,77,0.00,,,0.00,,2013-03-01 09:32:00,
2013-03-01 03:42:00,25.0,19.0,30.20,NNW,346,5.0,10.0,77,0.00,,,0.00,,2013-03-01 09:42:00,
2013-03-01 03:52:00,25.0,19.0,30.20,NNW,332,5.0,8.0,77,0.00,,,0.00,,2013-03-01 09:52:00,
2013-03-01 04:02:00,25.0,19.0,30.21,North,354,5.0,8.0,77,0.00,,,0.00,,2013-03-01 10:02:00,
2013-03-01 04:11:00,25.0,19.0,30.21,North,354,5.0,8.0,77,0.00,,,0.00,,2013-03-01 10:11:00,
2013-03-01 04:22:00,25.0,19.0,30.21,NNW,332,5.0,9.0,77,0.00,,,0.00,,2013-03-01 10:22:00,
2013-03-01 04:32:00,25.0,19.0,30.21,NNW,341,5.0,9.0,78,0.00,,,0.00,,2013-03-01 10:32:00,
2013-03-01 04:42:00,25.0,19.0,30.21,NNW,341,5.0,9.0,78,0.00,,,0.00,,2013-03-01 10:42:00,
2013-03-01 04:53:00,25.0,19.0,30.22,NNW,339,3.0,9.0,78,0.00,,,0.00,,2013-03-01 10:53:00,
2013-03-01 05:01:00,25.0,19.0,30.22,NW,324,3.0,6.0,79,0.00,,,0.00,,2013-03-01 11:01:00,
2013-03-01 05:11:00,25.0,19.0,30.22,NW,324,3.0,6.0,79,0.00,,,0.00,,2013-03-01 11:11:00,
2013-03-01 05:22:00,25.0,19.0,30.22,North,5,5.0,8.0,79,0.00,,,0.00,,2013-03-01 11:22:00,
2013-03-01 05:32:00,25.0,20.0,30.22,NNW,328,2.0,6.0,80,0.00,,,0.00,,2013-03-01 11:32:00,
2013-03-01 05:42:00,25.0,20.0,30.22,NNW,328,2.0,6.0,80,0.00,,,0.00,,2013-03-01 11:42:00,
2013-03-01 05:52:00,25.0,19.0,30.22,NNW,329,3.0,6.0,79,0.00,,,0.00,,2013-03-01 11:52:00,
2013-03-01 06:01:00,25.0,20.0,30.22,NNW,336,2.0,5.0,80,0.00,,,0.00,,2013-03-01 12:01:00,
2013-03-01 06:11:00,25.0,20.0,30.22,NNW,336,2.0,5.0,80,0.00,,,0.00,,2013-03-01 12:11:00,
2013-03-01 06:21:00,25.0,20.0,30.22,NW,322,1.0,6.0,81,0.00,,,0.00,,2013-03-01 12:21:00,
2013-03-01 06:32:00,24.0,19.0,30.22,NW,314,1.0,5.0,82,0.00,,,0.00,,2013-03-01 12:32:00,
2013-03-01 06:42:00,24.0,19.0,30.22,NW,314,1.0,5.0,82,0.00,,,0.00,,2013-03-01 12:42:00,
2013-03-01 06:52:00,24.0,19.0,30.23,NNW,329,2.0,7.0,82,0.00,,,0.00,,2013-03-01 12:52:00,
2013-03-01 07:01:00,24.0,19.0,30.23,WNW,293,1.0,5.0,82,0.00,,,0.00,,2013-03-01 13:01:00,
2013-03-01 07:11:00,24.0,19.0,30.23,WNW,293,1.0,5.0,82,0.00,,,0.00,,2013-03-01 13:11:00,
2013-03-01 07:21:00,24.0,19.0,30.23,NW,316,1.0,5.0,82,0.00,,,0.00,,2013-03-01 13:21:00,
2013-03-01 07:32:00,24.0,19.0,30.24,WNW,291,2.0,6.0,82,0.00,,,0.00,,2013-03-01 13:32:00,
2013-03-01 07:42:00,24.0,19.0,30.24,WNW,291,2.0,6.0,82,0.00,,,0.00,,2013-03-01 13:42:00,
2013-03-01 07:52:00,24.0,20.0,30.24,NNW,329,1.0,5.0,83,0.00,,,0.00,,2013-03-01 13:52:00,
2013-03-01 08:01:00,24.0,20.0,30.25,NW,323,1.0,7.0,83,0.00,,,0.00,,2013-03-01 14:01:00,
2013-03-01 08:11:00,24.0,20.0,30.25,NW,323,1.0,7.0,83,0.00,,,0.00,,2013-03-01 14:11:00,
2013-03-01 08:21:00,24.0,20.0,30.25,NNW,336,3.0,6.0,83,0.00,,,0.00,,2013-03-01 14:21:00,
2013-03-01 08:32:00,24.0,20.0,30.26,North,353,2.0,5.0,84,0.00,,,0.00,,2013-03-01 14:32:00,
2013-03-01 08:41:00,24.0,20.0,30.26,North,353,2.0,5.0,84,0.00,,,0.00,,2013-03-01 14:41:00,
2013-03-01 08:52:00,24.0,20.0,30.26,NNW,340,2.0,7.0,84,0.00,,,0.00,,2013-03-01 14:52:00,
2013-03-01 09:01:00,24.0,20.0,30.26,NNE,20,4.0,8.0,84,0.00,,,0.00,,2013-03-01 15:01:00,
2013-03-01 09:11:00,25.0,21.0,30.27,NW,325,2.0,6.0,85,0.00,,,0.00,,2013-03-01 15:11:00,
2013-03-01 09:21:00,25.0,21.0,30.27,NW,325,2.0,6.0,85,0.00,,,0.00,,2013-03-01 15:21:00,
2013-03-01 09:31:00,25.0,21.0,30.27,North,350,5.0,7.0,83,0.00,,,0.00,,2013-03-01 15:31:00,
2013-03-01 09:42:00,25.0,21.0,30.27,North,350,5.0,7.0,83,0.00,,,0.00,,2013-03-01 15:42:00,
2013-03-01 09:52:00,25.0,20.0,30.27,NNW,330,4.0,9.0,82,0.00,,,0.00,,2013-03-01 15:52:00,
2013-03-01 10:01:00,26.0,21.0,30.27,NNW,328,4.0,7.0,81,0.00,,,0.00,,2013-03-01 16:01:00,
2013-03-01 10:11:00,26.0,21.0,30.27,NNW,328,4.0,7.0,81,0.00,,,0.00,,2013-03-01 16:11:00,
2013-03-01 10:21:00,26.0,21.0,30.27,North,356,5.0,8.0,80,0.00,,,0.00,,2013-03-01 16:21:00,
2013-03-01 10:32:00,26.0,20.0,30.27,North,352,6.0,12.0,77,0.00,,,0.00,,2013-03-01 16:32:00,
2013-03-01 10:42:00,26.0,20.0,30.27,North,352,6.0,12.0,77,0.00,,,0.00,,2013-03-01 16:42:00,
2013-03-01 10:52:00,26.0,20.0,30.27,NNW,338,6.0,14.0,77,0.00,,,0.00,,2013-03-01 16:52:00,
2013-03-01 11:01:00,27.0,20.0,30.27,NW,325,6.0,12.0,75,0.00,,,0.00,,2013-03-01 17:01:00,
2013-03-01 11:11:00,27.0,20.0,30.27,NW,325,6.0,12.0,75,0.00,,,0.00,,2013-03-01 17:11:00,
2013-03-01 11:21:00,27.0,20.0,30.27,NNW,328,5.0,9.0,75,0.00,,,0.00,,2013-03-01 17:21:00,
2013-03-01 11:32:00,27.0,20.0,30.27,NNW,335,3.0,8.0,76,0.00,,,0.00,,2013-03-01 17:32:00,
2013-03-01 11:41:00,27.0,20.0,30.27,NNW,335,3.0,8.0,76,0.00,,,0.00,,2013-03-01 17:41:00,
2013-03-01 11:52:00,27.0,20.0,30.28,NNW,330,5.0,9.0,75,0.00,,,0.00,,2013-03-01 17:52:00,
2013-03-01 12:01:00,27.0,20.0,30.27,West,275,4.0,11.0,73,0.00,,,0.00,,2013-03-01 18:01:00,
2013-03-01 12:12:00,27.0,20.0,30.27,West,275,4.0,11.0,73,0.00,,,0.00,,2013-03-01 18:12:00,
2013-03-01 12:22:00,27.0,20.0,30.28,NNW,343,3.0,9.0,73,0.00,,,0.00,,2013-03-01 18:22:00,
2013-03-01 12:31:00,28.0,20.0,30.28,NW,326,3.0,11.0,72,0.00,,,0.00,,2013-03-01 18:31:00,
2013-03-01 12:42:00,28.0,20.0,30.28,NW,326,3.0,11.0,72,0.00,,,0.00,,2013-03-01 18:42:00,
2013-03-01 12:52:00,28.0,20.0,30.27,WNW,289,4.0,12.0,71,0.00,,,0.00,,2013-03-01 18:52:00,
2013-03-01 13:01:00,28.0,20.0,30.27,North,350,5.0,14.0,72,0.00,,,0.00,,2013-03-01 19:01:00,
2013-03-01 13:11:00,28.0,20.0,30.27,North,350,5.0,14.0,72,0.00,,,0.00,,2013-03-01 19:11:00,
2013-03-01 13:21:00,28.0,20.0,30.27,NNE,27,8.0,14.0,70,0.00,,,0.00,,2013-03-01 19:21:00,
2013-03-01 13:32:00,28.0,19.0,30.27,NNW,333,4.0,17.0,69,0.00,,,0.00,,2013-03-01 19:32:00,
2013-03-01 13:42:00,28.0,19.0,30.27,NNW,333,4.0,17.0,69,0.00,,,0.00,,2013-03-01 19:42:00,
2013-03-01 13:52:00,28.0,18.0,30.27,NNW,336,7.0,13.0,66,0.00,,,0.00,,2013-03-01 19:52:00,
2013-03-01 14:01:00,28.0,18.0,30.27,NNE,30,7.0,12.0,66,0.00,,,0.00,,2013-03-01 20:01:00,
2013-03-01 14:11:00,28.0,18.0,30.27,NNE,30,7.0,12.0,66,0.00,,,0.00,,2013-03-01 20:11:00,
2013-03-01 14:21:00,28.0,18.0,30.27,NNW,338,4.0,9.0,67,0.00,,,0.00,,2013-03-01 20:21:00,
2013-03-01 14:31:00,28.0,19.0,30.27,NNE,15,5.0,8.0,68,0.00,,,0.00,,2013-03-01 20:31:00,
2013-03-01 14:42:00,28.0,19.0,30.27,NNE,15,5.0,8.0,68,0.00,,,0.00,,2013-03-01 20:42:00,
2013-03-01 14:52:00,27.0,18.0,30.27,NNE,18,7.0,13.0,69,0.00,,,0.00,,2013-03-01 20:52:00,
2013-03-01 15:01:00,28.0,19.0,30.27,NNW,346,4.0,7.0,68,0.00,,,0.00,,2013-03-01 21:01:00,
2013-03-01 15:11:00,28.0,19.0,30.27,NNW,346,4.0,7.0,68,0.00,,,0.00,,2013-03-01 21:11:00,
2013-03-01 15:21:00,28.0,18.0,30.27,NNW,342,3.0,8.0,67,0.00,,,0.00,,2013-03-01 21:21:00,
2013-03-01 15:31:00,29.0,19.0,30.27,NNW,339,5.0,8.0,66,0.00,,,0.00,,2013-03-01 21:31:00,
2013-03-01 15:42:00,29.0,19.0,30.27,NNW,339,5.0,8.0,66,0.00,,,0.00,,2013-03-01 21:42:00,
2013-03-01 15:52:00,29.0,19.0,30.27,NNE,20,4.0,7.0,65,0.00,,,0.00,,2013-03-01 21:52:00,
2013-03-01 16:01:00,29.0,19.0,30.27,North,3,5.0,10.0,66,0.00,,,0.00,,2013-03-01 22:01:00,
2013-03-01 16:11:00,29.0,19.0,30.27,North,3,5.0,10.0,66,0.00,,,0.00,,2013-03-01 22:11:00,
2013-03-01 16:21:00,28.0,18.0,30.27,North,352,4.0,8.0,66,0.00,,,0.00,,2013-03-01 22:21:00,
2013-03-01 16:31:00,28.0,18.0,30.27,NNW,341,5.0,8.0,66,0.00,,,0.00,,2013-03-01 22:31:00,
2013-03-01 16:42:00,28.0,18.0,30.27,NNW,341,5.0,8.0,66,0.00,,,0.00,,2013-03-01 22:42:00,
2013-03-01 16:52:00,29.0,19.0,30.28,NNW,328,4.0,8.0,65,0.00,,,0.00,,2013-03-01 22:52:00,
2013-03-01 17:01:00,28.0,18.0,30.28,NNE,19,4.0,8.0,65,0.00,,,0.00,,2013-03-01 23:01:00,
2013-03-01 17:11:00,28.0,18.0,30.28,NNE,19,4.0,8.0,65,0.00,,,0.00,,2013-03-01 23:11:00,
2013-03-01 17:21:00,28.0,19.0,30.29,NW,326,4.0,10.0,68,0.00,,,0.00,,2013-03-01 23:21:00,
2013-03-01 17:31:00,28.0,20.0,30.29,NNE,13,3.0,7.0,70,0.00,,,0.00,,2013-03-01 23:31:00,
2013-03-01 17:41:00,28.0,20.0,30.29,NNE,13,3.0,7.0,70,0.00,,,0.00,,2013-03-01 23:41:00,
2013-03-01 17:52:00,27.0,18.0,30.30,NNE,28,5.0,9.0,69,0.00,,,0.00,,2013-03-01 23:52:00,
2013-03-01 18:02:00,27.0,18.0,30.31,NNE,23,4.0,7.0,69,0.00,,,0.00,,2013-03-02 00:02:00,
2013-03-01 18:11:00,27.0,18.0,30.31,NNE,23,4.0,7.0,69,0.00,,,0.00,,2013-03-02 00:11:00,
2013-03-01 18:22:00,27.0,19.0,30.31,North,354,3.0,6.0,70,0.00,,,0.00,,2013-03-02 00:22:00,
2013-03-01 18:32:00,27.0,19.0,30.32,North,8,3.0,7.0,71,0.00,,,0.00,,2013-03-02 00:32:00,
2013-03-01 18:42:00,27.0,19.0,30.32,North,8,3.0,7.0,71,0.00,,,0.00,,2013-03-02 00:42:00,
2013-03-01 18:52:00,27.0,19.0,30.32,NW,325,3.0,5.0,72,0.00,,,0.00,,2013-03-02 00:52:00,
2013-03-01 19:01:00,26.0,18.0,30.32,NNE,24,4.0,6.0,70,0.00,,,0.00,,2013-03-02 01:01:00,
2013-03-01 19:11:00,26.0,18.0,30.32,NNE,24,4.0,6.0,70,0.00,,,0.00,,2013-03-02 01:11:00,
2013-03-01 19:21:00,26.0,19.0,30.33,NNW,346,4.0,8.0,73,0.00,,,0.00,,2013-03-02 01:21:00,
2013-03-01 19:31:00,26.0,19.0,30.32,NW,314,2.0,7.0,73,0.00,,,0.00,,2013-03-02 01:31:00,
2013-03-01 19:41:00,26.0,19.0,30.32,NW,314,2.0,7.0,73,0.00,,,0.00,,2013-03-02 01:41:00,
2013-03-01 19:52:00,26.0,18.0,30.33,NW,326,3.0,7.0,72,0.00,,,0.00,,2013-03-02 01:52:00,
2013-03-01 20:01:00,26.0,18.0,30.33,NNW,336,4.0,7.0,71,0.00,,,0.00,,2013-03-02 02:01:00,
2013-03-01 20:11:00,26.0,18.0,30.33,NNW,336,4.0,7.0,71,0.00,,,0.00,,2013-03-02 02:11:00,
2013-03-01 20:22:00,26.0,18.0,30.33,North,360,5.0,8.0,70,0.00,,,0.00,,2013-03-02 02:22:00,
2013-03-01 20:32:00,26.0,18.0,30.34,NNE,18,4.0,6.0,71,0.00,,,0.00,,2013-03-02 02:32:00,
2013-03-01 20:42:00,26.0,18.0,30.34,NNE,18,4.0,6.0,71,0.00,,,0.00,,2013-03-02 02:42:00,
2013-03-01 20:52:00,25.0,17.0,30.34,North,350,4.0,8.0,71,0.00,,,0.00,,2013-03-02 02:52:00,
2013-03-01 21:01:00,25.0,17.0,30.34,NNW,338,3.0,9.0,71,0.00,,,0.00,,2013-03-02 03:01:00,
2013-03-01 21:11:00,25.0,17.0,30.34,NNW,338,3.0,9.0,71,0.00,,,0.00,,2013-03-02 03:11:00,
2013-03-01 21:21:00,25.0,17.0,30.34,North,356,4.0,11.0,72,0.00,,,0.00,,2013-03-02 03:21:00,
2013-03-01 21:32:00,25.0,17.0,30.35,NNW,332,2.0,7.0,72,0.00,,,0.00,,2013-03-02 03:32:00,
2013-03-01 21:42:00,25.0,17.0,30.35,NNW,332,2.0,7.0,72,0.00,,,0.00,,2013-03-02 03:42:00,
2013-03-01 21:52:00,24.0,16.0,30.34,NNE,31,3.0,8.0,71,0.00,,,0.00,,2013-03-02 03:52:00,
2013-03-01 22:01:00,24.0,16.0,30.34,North,6,4.0,6.0,72,0.00,,,0.00,,2013-03-02 04:01:00,
2013-03-01 22:11:00,24.0,16.0,30.34,North,6,4.0,6.0,72,0.00,,,0.00,,2013-03-02 04:11:00,
2013-03-01 22:21:00,24.0,17.0,30.34,NNW,332,2.0,5.0,73,0.00,,,0.00,,2013-03-02 04:21:00,
2013-03-01 22:32:00,24.0,16.0,30.35,North,349,4.0,7.0,72,0.00,,,0.00,,2013-03-02 04:32:00,
2013-03-01 22:42:00,24.0,16.0,30.35,North,349,4.0,7.0,72,0.00,,,0.00,,2013-03-02 04:42:00,
2013-03-01 22:52:00,24.0,17.0,30.35,NNW,348,4.0,6.0,73,0.00,,,0.00,,2013-03-02 04:52:00,
2013-03-01 23:01:00,24.0,17.0,30.35,NNW,345,1.0,6.0,74,0.00,,,0.00,,2013-03-02 05:01:00,
2013-03-01 23:12:00,24.0,17.0,30.35,NNW,345,1.0,6.0,74,0.00,,,0.00,,2013-03-02 05:12:00,
2013-03-01 23:22:00,24.0,17.0,30.35,NW,325,3.0,6.0,73,0.00,,,0.00,,2013-03-02 05:22:00,
2013-03-01 23:32:00,24.0,17.0,30.35,NNW,345,3.0,6.0,73,0.00,,,0.00,,2013-03-02 05:32:00,
2013-03-01 23:42:00,24.0,17.0,30.35,NNW,345,3.0,6.0,73,0.00,,,0.00,,2013-03-02 05:42:00,
2013-03-01 23:52:00,24.0,17.0,30.35,NNW,345,3.0,6.0,73,0.00,,,0.00,,2013-03-02 05:52:00,